EW4713 Weather Reports


time (UTC)temp
C
wind
direction
speed
KPH
gust
KPH
rain 1hr
cm
rain 24hr
cm
rain mn
cm
humidity
%
barometer
mb
20260508041801 0 23 0.0 1.6 0.00 0.00 0.00 64 1009.3
20260508040801 0 60 0.0 1.6 0.00 0.00 0.00 68 1009.4
20260508040300 0 66 0.0 1.6 0.00 0.00 0.00 68 1009.2
20260508035805 0 66 0.0 0.0 0.00 0.00 0.00 68 1009.1
20260508035307 0 66 0.0 0.0 0.00 0.00 0.00 67 1009.2
20260508034803 0 66 0.0 0.0 0.00 0.00 0.00 67 1009.2
20260508034303 0 66 0.0 1.6 0.00 0.00 0.00 65 1009.4
20260508033803 0 66 0.0 1.6 0.00 0.00 0.00 63 1009.3
20260508033301 0 66 1.6 1.6 0.00 0.00 0.00 65 1009.3
20260508032803 1 23 0.0 1.6 0.00 0.00 0.00 64 1009.3
20260508031758 1 74 0.0 1.6 0.00 0.00 0.00 61 1009.4
20260508031259 1 90 0.0 1.6 0.00 0.00 0.00 61 1009.5
20260508030759 1 74 0.0 1.6 0.00 0.00 0.00 60 1009.3
20260508025756 1 74 0.0 1.6 0.00 0.00 0.00 60 1009.2
20260508024750 1 0 0.0 0.0 0.00 0.00 0.00 58 1009.2
20260508024250 2 0 0.0 0.0 0.00 0.00 0.00 58 1009.2
20260508023749 2 0 0.0 0.0 0.00 0.00 0.00 56 1009.3
20260508023249 2 0 0.0 0.0 0.00 0.00 0.00 55 1009.3
20260508022750 3 0 0.0 0.0 0.00 0.00 0.00 54 1009.3
20260508022239 3 0 0.0 1.6 0.00 0.00 0.00 53 1009.2
20260508021738 4 0 0.0 1.6 0.00 0.00 0.00 51 1009.5
20260508021238 4 354 0.0 1.6 0.00 0.00 0.00 51 1009.2
20260508020739 4 7 0.0 1.6 0.00 0.00 0.00 51 1009.2
20260508015737 5 165 0.0 0.0 0.00 0.00 0.00 49 1009.1
20260508015239 5 165 0.0 0.0 0.00 0.00 0.00 49 1008.8
20260508014738 5 165 0.0 0.0 0.00 0.00 0.00 47 1009.0
20260508014239 6 165 0.0 0.0 0.00 0.00 0.00 45 1008.9
20260508013737 6 165 0.0 0.0 0.00 0.00 0.00 44 1008.9
20260508012729 7 165 0.0 0.0 0.00 0.00 0.00 42 1008.8
20260508012229 7 165 0.0 0.0 0.00 0.00 0.00 41 1008.9
20260508011229 8 165 0.0 4.8 0.00 0.00 0.00 38 1008.8
20260508010729 8 151 0.0 4.8 0.00 0.00 0.00 39 1008.8
20260508010231 8 157 0.0 3.2 0.00 0.00 0.00 37 1008.8
20260508005730 9 106 0.0 3.2 0.00 0.00 0.00 37 1008.8
20260508004729 10 254 0.0 6.4 0.00 0.00 0.00 34 1008.6
20260508004230 11 180 0.0 6.4 0.00 0.00 0.00 33 1008.6
20260508003733 11 119 3.2 11.3 0.00 0.00 0.00 33 1008.5
20260508003228 10 180 1.6 11.3 0.00 0.00 0.00 34 1008.9
20260508002731 10 54 8.0 9.7 0.00 0.00 0.00 33 1008.6
20260508002229 10 132 3.2 9.7 0.00 0.00 0.00 32 1008.3
20260508001729 11 78 3.2 9.7 0.00 0.00 0.00 33 1008.5
20260508001230 11 123 1.6 9.7 0.00 0.00 0.00 32 1008.9
20260508000729 11 78 1.6 9.7 0.00 0.00 0.00 32 1008.6
20260507235229 11 186 1.6 9.7 0.00 0.00 0.00 33 1008.8
20260507234729 11 87 4.8 9.7 0.00 0.00 0.00 31 1008.6
20260507234229 12 172 4.8 12.9 0.00 0.00 0.00 32 1008.8
20260507233731 11 143 3.2 12.9 0.00 0.00 0.00 31 1008.6
20260507232229 12 171 4.8 16.1 0.00 0.00 0.00 29 1008.8
20260507231729 12 161 6.4 16.1 0.00 0.00 0.00 31 1008.8
20260507231231 12 5 0.0 11.3 0.00 0.00 0.00 32 1008.8
20260507230729 13 180 8.0 11.3 0.00 0.00 0.00 30 1008.6
20260507230229 12 113 4.8 20.9 0.00 0.00 0.00 31 1008.8
20260507225730 12 94 3.2 20.9 0.00 0.00 0.00 30 1008.9
20260507224731 12 90 1.6 16.1 0.00 0.00 0.00 30 1008.8
20260507223729 12 93 6.4 9.7 0.00 0.00 0.00 30 1008.9
20260507223231 12 111 4.8 9.7 0.00 0.00 0.00 31 1008.8
20260507222730 12 209 6.4 9.7 0.00 0.00 0.00 31 1009.1
20260507222232 11 90 0.0 9.7 0.00 0.00 0.00 34 1008.9
20260507221729 10 90 0.0 11.3 0.00 0.00 0.00 35 1009.1
20260507221229 11 143 3.2 11.3 0.00 0.00 0.00 35 1009.1
20260507220730 12 135 4.8 12.9 0.00 0.00 0.00 33 1008.9
20260507220229 11 306 1.6 12.9 0.00 0.00 0.00 34 1008.9
20260507215729 11 225 0.0 8.0 0.00 0.00 0.00 34 1008.8
20260507214229 12 283 3.2 9.7 0.00 0.00 0.00 33 1009.1
20260507213725 13 99 6.4 11.3 0.00 0.00 0.00 34 1009.1
20260507213227 12 206 8.0 12.9 0.00 0.00 0.00 34 1009.0
20260507212725 12 90 4.8 12.9 0.00 0.00 0.00 35 1009.2
20260507212225 12 236 3.2 8.0 0.00 0.00 0.00 35 1009.3
20260507211723 12 132 3.2 11.3 0.00 0.00 0.00 36 1009.1
20260507211224 11 206 3.2 11.3 0.00 0.00 0.00 37 1009.4
20260507210721 10 200 1.6 8.0 0.00 0.00 0.00 36 1009.4
20260507210209 12 164 8.0 11.3 0.00 0.00 0.00 35 1009.5
20260507205712 11 180 3.2 11.3 0.00 0.00 0.00 36 1009.3
20260507205206 11 141 6.4 11.3 0.00 0.00 0.00 37 1009.3
20260507204702 11 190 3.2 14.5 0.00 0.00 0.00 35 1009.4
20260507204203 11 95 3.2 14.5 0.00 0.00 0.00 37 1009.2
20260507203702 11 173 1.6 11.3 0.00 0.00 0.00 36 1009.4
20260507203205 10 147 4.8 11.3 0.00 0.00 0.00 39 1009.5
20260507202703 10 139 3.2 12.9 0.00 0.00 0.00 39 1009.5
20260507202202 10 165 3.2 12.9 0.00 0.00 0.00 37 1009.6
20260507201703 12 169 1.6 9.7 0.00 0.00 0.00 35 1009.7
20260507201204 11 152 6.4 11.3 0.00 0.00 0.00 37 1009.5
20260507200702 10 180 4.8 11.3 0.00 0.00 0.00 37 1009.8
20260507200204 12 341 3.2 17.7 0.00 0.00 0.00 37 1009.7
20260507195702 11 69 4.8 17.7 0.00 0.00 0.00 38 1009.5
20260507195203 12 109 1.6 12.9 0.00 0.00 0.00 39 1009.8
20260507194701 12 90 4.8 12.9 0.00 0.00 0.00 38 1009.8
20260507194201 11 110 4.8 16.1 0.00 0.00 0.00 39 1010.0
20260507193201 10 71 8.0 17.7 0.00 0.00 0.00 41 1009.9
20260507192701 9 203 1.6 14.5 0.00 0.00 0.00 40 1009.8
20260507192201 10 125 9.7 14.5 0.00 0.00 0.00 38 1009.6
20260507191701 10 117 3.2 14.5 0.00 0.00 0.00 38 1009.8
20260507191201 11 164 6.4 14.5 0.00 0.00 0.00 37 1009.8
20260507190702 11 194 3.2 14.5 0.00 0.00 0.00 36 1009.8
20260507190203 11 171 4.8 16.1 0.00 0.00 0.00 36 1009.8
20260507185701 11 101 3.2 16.1 0.00 0.00 0.00 38 1009.9
20260507185200 12 159 3.2 12.9 0.00 0.00 0.00 36 1010.0
20260507184702 11 67 6.4 25.7 0.00 0.00 0.00 37 1009.9
20260507184202 9 134 9.7 25.7 0.00 0.00 0.00 40 1010.2
20260507183702 10 148 4.8 16.1 0.00 0.00 0.00 39 1010.0
20260507183204 11 148 4.8 16.1 0.00 0.00 0.00 41 1010.0
20260507182702 10 154 6.4 16.1 0.00 0.00 0.00 41 1010.0
20260507182204 9 127 4.8 14.5 0.00 0.00 0.00 41 1010.0
20260507181703 10 154 3.2 14.5 0.00 0.00 0.00 42 1010.0
20260507180702 9 109 1.6 11.3 0.00 0.00 0.00 43 1010.5
20260507180204 9 196 6.4 11.3 0.00 0.00 0.00 42 1010.5
20260507175702 9 151 1.6 11.3 0.00 0.00 0.00 43 1010.3
20260507175202 8 104 11.3 19.3 0.00 0.00 0.00 42 1010.2
20260507174204 10 151 6.4 9.7 0.00 0.00 0.00 40 1010.5
20260507173705 9 201 3.2 12.9 0.00 0.00 0.00 41 1010.4
20260507173230 9 172 0.0 14.5 0.00 0.00 0.00 42 1010.7
20260507172702 10 134 4.8 14.5 0.00 0.00 0.00 40 1010.7
20260507172201 10 164 3.2 9.7 0.00 0.00 0.00 42 1010.6
20260507171203 8 144 3.2 9.7 0.00 0.00 0.00 44 1010.8
20260507170705 9 176 0.0 9.7 0.00 0.00 0.00 43 1010.8
20260507170217 9 203 0.0 9.7 0.00 0.00 0.00 44 1010.7
20260507165703 8 75 6.4 9.7 0.00 0.00 0.00 44 1010.6
20260507165203 9 236 3.2 8.0 0.00 0.00 0.00 44 1010.8
20260507164703 8 151 0.0 8.0 0.00 0.00 0.00 46 1010.9
20260507164202 8 168 3.2 11.3 0.00 0.00 0.00 46 1010.9
20260507163703 8 147 3.2 11.3 0.00 0.00 0.00 46 1010.9
20260507163204 8 161 3.2 8.0 0.00 0.00 0.00 48 1011.0
20260507162701 8 169 0.0 12.9 0.00 0.00 0.00 49 1010.8
20260507162202 7 84 4.8 12.9 0.00 0.00 0.00 49 1011.0
20260507161202 7 166 0.0 9.7 0.00 0.00 0.00 49 1010.9
20260507160701 7 168 3.2 12.9 0.00 0.00 0.00 47 1010.8
20260507160202 8 109 8.0 12.9 0.00 0.00 0.00 50 1010.8
20260507155701 7 184 3.2 9.7 0.00 0.00 0.00 49 1010.9
20260507154702 7 87 4.8 12.9 0.00 0.00 0.00 51 1011.2
20260507154201 7 154 4.8 8.0 0.00 0.00 0.00 49 1010.9
20260507153703 7 123 4.8 11.3 0.00 0.00 0.00 50 1010.9
20260507153202 7 178 4.8 11.3 0.00 0.00 0.00 51 1010.7
20260507152700 7 97 0.0 9.7 0.00 0.00 0.00 50 1010.9
20260507152202 7 109 3.2 9.7 0.00 0.00 0.00 50 1010.8
20260507151700 7 110 3.2 9.7 0.00 0.00 0.00 52 1010.8
20260507151203 6 165 3.2 8.0 0.00 0.00 0.00 54 1010.8
20260507150705 6 132 3.2 11.3 0.00 0.00 0.00 53 1011.0
20260507145703 6 202 4.8 11.3 0.00 0.00 0.00 53 1010.8
20260507145202 6 114 0.0 11.3 0.00 0.00 0.00 56 1010.8
20260507144703 6 108 4.8 8.0 0.00 0.00 0.00 56 1010.7
20260507144202 5 124 6.4 12.9 0.00 0.00 0.00 57 1010.8
20260507143702 5 149 3.2 12.9 0.00 0.00 0.00 57 1010.9
20260507143202 5 36 0.0 11.3 0.00 0.00 0.00 60 1010.9
20260507142704 5 96 0.0 11.3 0.00 0.00 0.00 60 1010.7
20260507141202 5 98 1.6 8.0 0.00 0.00 0.00 61 1011.0
20260507140703 5 129 3.2 11.3 0.00 0.00 0.00 64 1011.3
20260507140204 3 161 6.4 11.3 0.00 0.00 0.00 64 1011.2
20260507135202 3 45 0.0 6.4 0.00 0.00 0.00 69 1011.2
20260507134702 2 105 0.0 6.4 0.00 0.00 0.00 69 1011.3
20260507134201 2 141 3.2 4.8 0.00 0.00 0.00 72 1011.3
20260507133702 1 68 3.2 6.4 0.00 0.00 0.00 72 1011.0
20260507133204 1 56 3.2 6.4 0.00 0.00 0.00 72 1011.3
20260507132702 1 111 0.0 4.8 0.00 0.00 0.00 70 1011.3
20260507131703 1 82 3.2 4.8 0.00 0.00 0.00 73 1011.4
20260507131204 1 70 3.2 3.2 0.00 0.00 0.00 73 1011.6
20260507130703 0 112 3.2 3.2 0.00 0.00 0.00 76 1011.5
20260507130204 0 48 3.2 3.2 0.00 0.00 0.00 76 1011.5
20260507125701 0 90 1.6 3.2 0.00 0.00 0.00 77 1011.4
20260507125202 0 82 0.0 1.6 0.00 0.00 0.00 82 1011.5
20260507124702 0 90 0.0 1.6 0.00 0.00 0.00 84 1011.8
20260507124200 0 57 0.0 1.6 0.00 0.00 0.00 87 1011.6
20260507123701 -1 60 0.0 1.6 0.00 0.00 0.00 89 1011.5
20260507123201 -1 60 0.0 1.6 0.00 0.00 0.00 89 1011.8
20260507122202 -2 53 0.0 3.2 0.00 0.00 0.00 91 1011.6
20260507121701 -2 53 0.0 3.2 0.00 0.00 0.00 92 1011.5
20260507121200 -2 23 0.0 1.6 0.00 0.00 0.00 93 1011.5
20260507120701 -3 23 0.0 0.0 0.00 0.00 0.00 93 1011.3
20260507120203 -3 23 0.0 1.6 0.00 0.00 0.00 93 1011.3
20260507115701 -4 23 0.0 3.2 0.00 0.00 0.00 93 1011.4
20260507115201 -4 33 0.0 3.2 0.00 0.00 0.00 94 1011.5
20260507114702 -4 23 0.0 1.6 0.00 0.00 0.00 96 1011.4
20260507114200 -5 23 0.0 0.0 0.00 0.00 0.00 96 1011.4
20260507113702 -5 23 0.0 1.6 0.00 0.00 0.00 96 1011.3
20260507112701 -6 23 0.0 0.0 0.00 0.00 0.00 96 1011.4
20260507112202 -6 23 0.0 3.2 0.00 0.00 0.00 95 1011.2
20260507111201 -6 20 0.0 3.2 0.00 0.00 0.00 96 1011.4
20260507110700 -6 60 1.6 1.6 0.00 0.00 0.00 95 1011.3
20260507105700 -6 180 0.0 1.6 0.00 0.00 0.00 96 1011.2
20260507105201 -6 23 0.0 1.6 0.00 0.00 0.00 95 1011.3
20260507104701 -6 29 0.0 0.0 0.00 0.00 0.00 95 1011.4
20260507104149 -6 29 0.0 1.6 0.00 0.00 0.00 95 1011.4
20260507103650 -6 29 0.0 1.6 0.00 0.00 0.00 95 1011.6
20260507103149 -6 20 0.0 1.6 0.00 0.00 0.00 94 1011.6
20260507102649 -6 32 0.0 3.2 0.00 0.00 0.00 94 1011.4
20260507102149 -6 32 0.0 3.2 0.00 0.00 0.00 94 1011.4
20260507101649 -6 20 0.0 3.2 0.00 0.00 0.00 94 1011.5
20260507100647 -6 23 0.0 1.6 0.00 0.00 0.00 94 1011.6
20260507095634 -6 54 0.0 1.6 0.00 0.00 0.00 94 1011.6
20260507095135 -5 54 0.0 1.6 0.00 0.00 0.00 94 1011.6
20260507094136 -5 41 0.0 3.2 0.00 0.00 0.00 94 1011.7
20260507093629 -5 18 1.6 1.6 0.00 0.00 0.00 94 1011.7
20260507093131 -5 60 0.0 1.6 0.00 0.00 0.00 93 1011.6
20260507092629 -5 66 0.0 1.6 0.00 0.00 0.00 93 1011.7
20260507092130 -5 66 0.0 1.6 0.00 0.00 0.00 92 1011.8
20260507091629 -5 66 0.0 1.6 0.00 0.00 0.00 92 1011.8
20260507091129 -5 66 0.0 1.6 0.00 0.00 0.00 92 1011.7
20260507090131 -5 32 0.0 3.2 0.00 0.00 0.00 92 1011.7
20260507085629 -4 23 0.0 3.2 0.00 0.00 0.00 92 1011.7
20260507085129 -4 0 0.0 3.2 0.00 0.00 0.00 92 1011.7
20260507084630 -4 0 0.0 3.2 0.00 0.00 0.00 91 1011.7
20260507083629 -4 35 0.0 3.2 0.00 0.00 0.00 91 1011.7
20260507083130 -4 36 0.0 3.2 0.00 0.00 0.00 91 1011.7
20260507082629 -4 45 0.0 3.2 0.00 0.00 0.00 91 1011.7
20260507082129 -4 45 0.0 3.2 0.00 0.00 0.00 90 1011.7
20260507081629 -4 23 0.0 3.2 0.00 0.00 0.00 90 1011.8
20260507080629 -4 26 0.0 1.6 0.00 0.00 0.00 90 1011.6
20260507075629 -3 66 0.0 1.6 0.00 0.00 0.00 91 1011.7
20260507075130 -4 63 0.0 1.6 0.00 0.00 0.00 91 1011.6
20260507074629 -4 63 0.0 1.6 0.00 0.00 0.00 91 1011.7
20260507074130 -4 35 0.0 1.6 0.00 0.00 0.00 90 1011.7
20260507073628 -4 35 0.0 1.6 0.00 0.00 0.00 90 1011.6
20260507073133 -4 20 0.0 3.2 0.00 0.00 0.00 90 1011.8
20260507072632 -4 63 0.0 3.2 0.00 0.00 0.00 90 1011.9
20260507072132 -4 12 0.0 1.6 0.00 0.00 0.00 89 1011.9
20260507071633 -4 75 0.0 1.6 0.00 0.00 0.00 90 1011.9
20260507071131 -4 66 0.0 3.2 0.00 0.00 0.00 89 1011.9
20260507070129 -4 35 0.0 1.6 0.00 0.00 0.00 89 1012.0
20260507065124 -3 40 0.0 3.2 0.00 0.00 0.00 89 1012.0
20260507064623 -4 66 1.6 3.2 0.00 0.00 0.00 88 1012.1
20260507064122 -3 66 0.0 3.2 0.00 0.00 0.00 88 1012.0
20260507063612 -3 63 0.0 3.2 0.00 0.00 0.00 88 1012.3
20260507062113 -3 5 0.0 1.6 0.00 0.00 0.00 87 1012.2
20260507061612 -3 23 0.0 1.6 0.00 0.00 0.00 88 1012.4
20260507060613 -3 14 0.0 0.0 0.00 0.00 0.00 90 1012.5
20260507055114 -3 14 0.0 0.0 0.00 0.00 0.00 86 1012.7
20260507053604 -3 14 0.0 3.2 0.00 0.00 0.00 86 1012.5
20260507053104 -3 20 1.6 3.2 0.00 0.00 0.00 87 1012.6
20260507052601 -3 29 0.0 1.6 0.00 0.00 0.00 86 1012.5
20260507052102 -3 60 0.0 3.2 0.00 0.00 0.00 85 1012.5
20260507051601 -3 35 0.0 3.2 0.00 0.00 0.00 85 1012.7
20260507051108 -3 23 0.0 3.2 0.00 0.00 0.00 85 1012.9
20260507050611 -2 35 0.0 1.6 0.00 0.00 0.00 84 1013.0
20260507050111 -2 35 0.0 1.6 0.00 0.00 0.00 84 1012.7
20260507045103 -2 35 0.0 3.2 0.00 0.00 0.00 83 1012.9
20260507044602 -2 23 0.0 1.6 0.00 0.00 0.00 84 1013.0
20260507044102 -2 66 0.0 0.0 0.00 0.00 0.00 83 1012.9
20260507043600 -2 66 0.0 1.6 0.00 0.00 0.00 83 1013.0
20260507042601 -2 75 1.6 3.2 0.00 0.00 0.00 81 1013.2
20260507042101 -1 75 0.0 3.2 0.00 0.00 0.00 80 1013.2